#timestamp,LO_Frequency,Hit,StdDev 
1516723215.3,286046999.4,N
1516723235.1,286046997.1,N
1516723255.9,286046997.2,N
1516723275.7,286046999.3,N
1516723295.6,286046996.6,N
1516723315.4,286046997.4,N
1516723335.2,286046998.0,N
1516723355.1,286046998.0,N
1516723356.0,286046998.0,N
1516723375.8,286046996.7,N
1516723395.7,286046997.2,N
1516723415.5,286046997.8,N
1516723435.3,286046998.9,N
1516723455.2,286046998.8,N
1516723475.9,286047001.2,N
1516723495.7,286047000.4,N
1516723515.6,286047004.1,N
1516723535.4,286047001.6,N
1516723555.3,286047001.6,N
1516723575.1,286047001.5,N
1516723576.0,286047001.5,N
1516723595.8,286047001.5,N
1516723615.7,286047004.3,N
1516723635.5,286047004.0,N
1516723655.3,286047004.4,N
1516723675.2,286047003.1,N
1516723695.0,286047001.7,N
1516723695.9,286047001.7,N
1516723715.8,286047001.9,N
1516723735.6,286047002.6,N
1516723755.4,286047002.4,N
1516723775.3,286047000.1,N
1516723795.1,286047000.6,N
1516723815.8,286047002.5,N
1516723835.7,286046999.9,N
1516723855.5,286047002.5,N
1516723875.4,286047003.6,N
1516723895.2,286047005.6,N
1516723915.0,286047007.6,Y
1516723915.9,286047007.6,P
1516723935.8,286047002.9,N
1516723955.6,286047005.6,N
1516723975.5,286047007.4,Y
1516723995.3,286046999.8,P
1516724015.1,286047002.8,N
1516724035.9,286047002.2,N
1516724055.7,286046999.8,N
1516724075.5,286046999.8,N
1516724095.4,286047001.2,N
1516724115.2,286046998.1,N
1516724135.1,286046999.9,N
1516724136.0,286046999.9,N
1516724155.8,286047000.0,N
1516724175.6,286047000.3,N
1516724195.5,286047001.5,N
1516724215.3,286047001.3,N
1516724235.1,286047004.1,N
1516724255.9,286047004.0,N
1516724275.7,286047001.4,N
1516724295.6,286047000.0,N
1516724315.4,286047001.7,N
1516724335.2,286047004.1,N
1516724355.1,286047002.5,N
1516724356.0,286047002.5,N
1516724375.8,286047001.3,N
1516724395.6,286047003.3,N
1516724415.5,286047005.2,Y
1516724435.3,286047003.3,P
1516724455.2,286047005.1,P
1516724475.9,286047005.8,P
1516724495.7,286047005.5,Y
1516724515.6,286047000.6,P
1516724535.4,286047001.0,N
1516724555.3,286047000.8,N
1516724575.1,286046998.3,N
1516724576.0,286046998.3,N
1516724595.8,286046998.7,N
1516724615.7,286047002.8,N
1516724635.5,286047000.7,N
1516724655.3,286047000.6,N
1516724675.2,286046998.5,N
1516724695.0,286046998.7,N
1516724695.9,286046998.7,N
1516724715.8,286047002.3,N
1516724735.6,286047000.1,N
1516724755.4,286047002.6,N
1516724775.3,286047001.3,N
1516724795.1,286047003.9,N
1516724815.8,286047001.5,N
1516724835.7,286047003.3,N
1516724855.5,286047005.9,Y
1516724875.4,286047001.9,P
1516724895.2,286047004.4,P
1516724915.0,286047002.4,N
1516724915.9,286047002.4,N
1516724935.8,286047002.8,N
1516724955.6,286047000.1,N
1516724975.5,286046999.7,N
1516724995.3,286047004.0,N
1516725015.1,286047001.6,N
1516725035.9,286046999.7,N
1516725055.7,286047004.4,N
1516725075.5,286047002.1,N
1516725095.4,286046999.7,N
1516725115.2,286047002.8,N
1516725135.1,286046999.7,N
1516725136.0,286046999.7,N
1516725155.8,286047000.2,N
1516725175.6,286047002.7,N
1516725195.5,286047001.8,N
1516725215.3,286047004.3,N
1516725235.1,286047003.8,N
1516725255.9,286047004.2,N
1516725275.7,286047001.5,N
1516725295.6,286047003.7,N
1516725315.4,286047003.1,N
1516725335.2,286047004.0,N
1516725355.1,286047005.6,Y
1516725356.0,286047005.6,P
1516725375.8,286047002.1,N
1516725395.7,286047002.3,N
1516725415.5,286047003.5,N
1516725435.3,286047005.6,Y
1516725455.2,286047002.4,P
1516725475.0,286047001.4,P
1516725475.9,286047001.4,N
1516725495.8,286047003.5,Y
1516725515.6,286047004.1,P
1516725535.4,286047003.4,P
1516725555.3,286047003.3,P
1516725575.1,286047005.6,Y
1516725595.9,286047004.1,P
1516725615.7,286047003.0,P
1516725635.5,286047005.3,P
1516725655.4,286047003.3,Y
1516725675.2,286047000.9,P
1516725695.0,286047000.0,N
1516725695.9,286047000.0,N
1516725715.8,286046998.5,N
1516725735.6,286047001.1,N
1516725755.5,286047002.8,N
1516725775.3,286047004.2,N
1516725795.1,286047003.5,N
1516725815.9,286047005.4,N
1516725835.7,286047007.2,Y
1516725855.6,286047003.5,P
1516725875.4,286047001.9,N
1516725895.2,286047000.4,N
1516725915.1,286047000.5,N
1516725916.0,286047000.5,N
1516725935.8,286047001.0,N
1516725955.6,286046998.6,N
1516725975.5,286046998.5,N
1516725995.3,286047000.7,N
1516726015.2,286046998.2,N
1516726035.9,286046998.3,N
1516726055.7,286046998.3,N
1516726075.6,286046999.2,N
1516726095.4,286046996.7,N
1516726115.2,286046997.8,N
1516726135.1,286046997.7,N
1516726136.0,286046997.7,N
1516726155.8,286046996.6,N
1516726175.7,286046997.1,N
1516726195.5,286046997.8,N
1516726215.3,286046997.2,N
1516726235.2,286046994.9,N
1516726255.0,286046996.2,N
1516726255.9,286046996.2,N
1516726275.7,286046998.0,N
1516726295.6,286046995.6,N
1516726315.4,286046995.2,N
1516726335.3,286046996.2,N
1516726355.1,286046996.0,N
1516726356.0,286046996.0,N
1516726375.8,286046995.8,N
1516726395.7,286046995.9,N
1516726415.5,286046995.4,N
1516726435.4,286046996.8,N
1516726455.2,286046999.4,N
1516726475.0,286046997.0,N
1516726475.9,286046997.0,N
1516726495.8,286046996.9,N
1516726515.6,286046997.4,N
1516726535.4,286046997.1,N
1516726555.3,286046996.9,N
1516726575.1,286046997.0,N
1516726595.9,286046997.4,N
1516726615.7,286046996.9,Y
1516726635.5,286046998.1,P
1516726655.4,286046998.5,N
1516726675.2,286046998.3,N
1516726695.0,286047000.7,N
1516726695.9,286047000.7,N
1516726715.8,286047000.6,N
1516726735.6,286047000.1,N
1516726755.5,286047002.8,N
1516726775.3,286047002.1,N
1516726795.1,286047000.9,N
